GW7068 Weather Reports


time (UTC)temp
C
wind
direction
speed
KPH
gust
KPH
rain 1hr
cm
rain 24hr
cm
rain mn
cm
humidity
%
barometer
mb
20260507150054 15 40 3.2 6.4 0.00 0.00 0.00 89 1016.5
20260507145555 15 6 1.6 3.2 0.00 0.00 0.00 90 1016.5
20260507145055 15 11 4.8 6.4 0.00 0.00 0.00 90 1016.5
20260507144554 14 357 4.8 4.8 0.00 0.00 0.00 90 1016.5
20260507144055 14 12 3.2 4.8 0.00 0.00 0.00 90 1016.5
20260507143555 14 52 4.8 6.4 0.00 0.00 0.00 91 1016.4
20260507143055 14 69 3.2 4.8 0.00 0.00 0.00 91 1016.4
20260507142554 14 34 3.2 6.4 0.00 0.00 0.00 91 1016.4
20260507142054 13 8 3.2 4.8 0.00 0.00 0.00 91 1016.4
20260507141555 13 9 3.2 3.2 0.00 0.00 0.00 91 1016.3
20260507141055 13 0 3.2 6.4 0.00 0.00 0.00 91 1016.2
20260507140554 13 48 3.2 3.2 0.00 0.00 0.00 92 1016.2
20260507140058 13 4 1.6 3.2 0.00 0.00 0.00 92 1016.0
20260507135554 13 48 3.2 4.8 0.00 0.00 0.00 92 1016.0
20260507135054 13 62 1.6 3.2 0.00 0.00 0.00 92 1015.9
20260507134556 13 45 4.8 6.4 0.00 0.00 0.00 92 1016.0
20260507134055 13 33 3.2 3.2 0.00 0.00 0.00 92 1015.9
20260507133555 13 70 1.6 3.2 0.00 0.00 0.00 92 1015.9
20260507133054 13 38 3.2 4.8 0.00 0.00 0.00 93 1016.0
20260507132555 12 43 3.2 3.2 0.00 0.00 0.00 94 1015.9
20260507132055 12 35 1.6 3.2 0.00 0.00 0.00 95 1015.9
20260507131555 12 21 1.6 3.2 0.00 0.00 0.00 95 1015.9
20260507131054 12 37 1.6 3.2 0.00 0.00 0.00 95 1015.9
20260507130559 12 30 1.6 3.2 0.00 0.00 0.00 95 1015.8
20260507130055 12 20 1.6 3.2 0.00 0.00 0.00 95 1015.8
20260507125554 12 35 1.6 3.2 0.00 0.00 0.00 95 1015.7
20260507125057 12 34 1.6 3.2 0.00 0.00 0.00 95 1015.7
20260507124554 12 33 1.6 3.2 0.00 0.00 0.00 95 1015.6
20260507124055 12 25 3.2 3.2 0.00 0.00 0.00 95 1015.6
20260507123554 12 27 1.6 3.2 0.00 0.00 0.00 94 1015.5
20260507123057 12 35 3.2 4.8 0.00 0.00 0.00 95 1015.6
20260507122555 12 16 3.2 3.2 0.00 0.00 0.00 94 1015.5
20260507122054 12 36 3.2 3.2 0.00 0.00 0.00 94 1015.5
20260507121554 13 0 0.0 0.0 0.00 0.00 0.00 94 1015.5
20260507121056 13 40 3.2 3.2 0.00 0.00 0.00 94 1015.5
20260507120556 13 30 3.2 3.2 0.00 0.00 0.00 95 1015.6
20260507120055 13 13 0.0 1.6 0.00 0.00 0.00 95 1015.6
20260507115555 13 77 0.0 1.6 0.00 0.00 0.00 94 1015.5
20260507115054 13 58 0.0 1.6 0.00 0.00 0.00 94 1015.5
20260507114555 12 37 1.6 3.2 0.00 0.00 0.00 94 1015.6
20260507114055 12 54 1.6 3.2 0.00 0.00 0.00 94 1015.5
20260507113555 12 61 0.0 1.6 0.00 0.00 0.00 94 1015.4
20260507113055 13 48 0.0 3.2 0.00 0.00 0.00 93 1015.5
20260507112555 13 60 0.0 0.0 0.00 0.00 0.00 93 1015.6
20260507112054 12 51 1.6 3.2 0.00 0.00 0.00 94 1015.6
20260507111554 13 41 0.0 1.6 0.00 0.00 0.00 93 1015.6
20260507111054 13 37 1.6 3.2 0.00 0.00 0.00 93 1015.6
20260507110555 13 31 1.6 3.2 0.00 0.00 0.00 93 1015.6
20260507110054 13 25 0.0 1.6 0.00 0.00 0.00 93 1015.7
20260507105554 13 31 1.6 3.2 0.00 0.00 0.00 93 1015.6
20260507105054 13 29 1.6 3.2 0.00 0.00 0.00 93 1015.6
20260507104555 13 46 1.6 3.2 0.00 0.00 0.00 93 1015.7
20260507104054 13 60 3.2 3.2 0.00 0.00 0.00 93 1015.8
20260507103554 13 63 1.6 3.2 0.00 0.00 0.00 93 1015.8
20260507103054 13 55 3.2 3.2 0.00 0.00 0.00 93 1015.8
20260507102554 13 60 3.2 3.2 0.00 0.00 0.00 93 1015.8
20260507102054 13 62 1.6 3.2 0.00 0.00 0.00 93 1015.8
20260507101554 13 56 1.6 3.2 0.00 0.00 0.00 92 1015.9
20260507101054 13 54 1.6 3.2 0.00 0.00 0.00 93 1016.0
20260507100554 13 31 1.6 3.2 0.00 0.00 0.00 92 1016.0
20260507100054 13 35 1.6 1.6 0.00 0.00 0.00 92 1015.9
20260507095554 13 2 0.0 1.6 0.00 0.00 0.00 93 1015.9
20260507095054 13 21 0.0 0.0 0.00 0.00 0.00 93 1016.0
20260507094554 13 52 0.0 1.6 0.00 0.00 0.00 93 1016.0
20260507094054 13 28 0.0 1.6 0.00 0.00 0.00 92 1016.0
20260507093554 13 55 3.2 4.8 0.00 0.00 0.00 93 1016.0
20260507093054 13 30 0.0 1.6 0.00 0.00 0.00 93 1016.1
20260507092554 13 22 0.0 1.6 0.00 0.00 0.00 93 1016.1
20260507092055 13 22 0.0 1.6 0.00 0.00 0.00 93 1016.2
20260507091554 13 4 0.0 1.6 0.00 0.00 0.00 93 1016.2
20260507091055 13 17 1.6 3.2 0.00 0.00 0.00 93 1016.3
20260507090554 13 0 0.0 0.0 0.00 0.00 0.00 93 1016.3
20260507090058 13 36 0.0 1.6 0.00 0.00 0.00 94 1016.3
20260507085555 13 28 0.0 3.2 0.00 0.00 0.00 94 1016.4
20260507085054 13 34 0.0 0.0 0.00 0.00 0.00 94 1016.4
20260507084556 13 40 0.0 1.6 0.00 0.00 0.00 94 1016.5
20260507084054 13 39 1.6 1.6 0.00 0.00 0.00 94 1016.6
20260507083554 13 44 0.0 0.0 0.00 0.00 0.00 93 1016.7
20260507083054 13 0 0.0 0.0 0.00 0.00 0.00 94 1016.7
20260507082555 13 0 0.0 0.0 0.00 0.00 0.00 94 1016.7
20260507082054 13 100 0.0 1.6 0.00 0.00 0.00 94 1016.7
20260507081554 13 0 0.0 0.0 0.00 0.00 0.00 94 1016.7
20260507081054 13 104 0.0 1.6 0.00 0.00 0.00 95 1016.8
20260507080554 13 0 0.0 0.0 0.00 0.00 0.00 94 1016.8
20260507080054 13 0 0.0 0.0 0.00 0.00 0.00 93 1016.8
20260507075554 13 89 0.0 3.2 0.00 0.00 0.00 93 1016.9
20260507075054 13 0 0.0 1.6 0.00 0.00 0.00 93 1016.9
20260507074555 13 46 0.0 1.6 0.00 0.00 0.00 93 1017.0
20260507074054 13 355 1.6 3.2 0.00 0.00 0.00 94 1016.9
20260507073555 13 15 0.0 1.6 0.00 0.00 0.00 94 1016.9
20260507073054 13 75 1.6 3.2 0.00 0.00 0.00 94 1016.9
20260507072554 13 36 0.0 1.6 0.00 0.00 0.00 94 1016.8
20260507072055 13 0 0.0 0.0 0.00 0.00 0.00 93 1016.8
20260507071555 13 0 0.0 0.0 0.00 0.00 0.00 93 1016.8
20260507071054 13 19 0.0 1.6 0.00 0.00 0.00 93 1016.9
20260507070554 13 0 0.0 0.0 0.00 0.00 0.00 93 1016.9
20260507070055 14 0 0.0 0.0 0.00 0.00 0.00 93 1017.0
20260507065555 14 30 0.0 1.6 0.00 0.00 0.00 92 1017.0
20260507065055 14 0 0.0 0.0 0.00 0.00 0.00 92 1017.0
20260507064559 14 80 0.0 1.6 0.00 0.00 0.00 91 1017.1
20260507064055 14 77 0.0 3.2 0.00 0.00 0.00 92 1017.2
20260507063554 14 0 0.0 0.0 0.00 0.00 0.00 91 1017.1
20260507063055 14 58 0.0 1.6 0.00 0.00 0.00 91 1017.2
20260507062555 14 75 0.0 3.2 0.00 0.00 0.00 92 1017.2
20260507062055 14 29 0.0 1.6 0.00 0.00 0.00 92 1017.2
20260507061556 14 35 0.0 1.6 0.00 0.00 0.00 92 1017.2
20260507061055 14 0 0.0 0.0 0.00 0.00 0.00 91 1017.2
20260507060555 14 0 0.0 0.0 0.00 0.00 0.00 91 1017.2
20260507060054 14 0 0.0 0.0 0.00 0.00 0.00 91 1017.2
20260507055554 14 0 0.0 0.0 0.00 0.00 0.00 91 1017.2
20260507055054 14 0 0.0 0.0 0.00 0.00 0.00 90 1017.0
20260507054555 14 0 0.0 0.0 0.00 0.00 0.00 90 1017.1
20260507054054 15 0 0.0 0.0 0.00 0.00 0.00 89 1017.1
20260507053556 15 38 1.6 1.6 0.00 0.00 0.00 89 1017.1
20260507053054 15 0 0.0 0.0 0.00 0.00 0.00 89 1017.1
20260507052554 15 0 0.0 0.0 0.00 0.00 0.00 89 1017.1
20260507052054 15 119 0.0 1.6 0.00 0.00 0.00 88 1017.1
20260507051555 15 0 0.0 0.0 0.00 0.00 0.00 88 1017.1
20260507051054 15 53 0.0 1.6 0.00 0.00 0.00 87 1017.1
20260507050554 15 28 1.6 1.6 0.00 0.00 0.00 87 1017.1
20260507050054 15 28 1.6 3.2 0.00 0.00 0.00 87 1017.1
20260507045554 15 0 0.0 0.0 0.00 0.00 0.00 87 1017.0
20260507045054 15 16 0.0 1.6 0.00 0.00 0.00 87 1017.0
20260507044554 15 10 0.0 1.6 0.00 0.00 0.00 86 1017.0
20260507044054 15 1 0.0 3.2 0.00 0.00 0.00 86 1017.0
20260507043554 15 15 0.0 3.2 0.00 0.00 0.00 86 1017.0
20260507043054 15 7 1.6 3.2 0.00 0.00 0.00 86 1017.0
20260507042554 15 22 0.0 1.6 0.00 0.00 0.00 86 1016.9
20260507041619 15 354 1.6 3.2 0.00 0.00 0.00 85 1016.9
20260507041055 16 351 1.6 3.2 0.00 0.00 0.00 85 1016.8
20260507040554 16 24 0.0 0.0 0.00 0.00 0.00 84 1016.8
20260507040055 16 345 1.6 3.2 0.00 0.00 0.00 84 1016.8
20260507035554 16 354 0.0 1.6 0.00 0.00 0.00 84 1016.8
20260507035054 16 340 1.6 3.2 0.00 0.00 0.00 83 1016.8
20260507034554 16 335 0.0 3.2 0.00 0.00 0.00 83 1016.7
20260507034054 16 341 1.6 4.8 0.00 0.00 0.00 83 1016.7
20260507033555 16 325 1.6 3.2 0.00 0.00 0.00 82 1016.6
20260507033054 16 330 1.6 3.2 0.00 0.00 0.00 82 1016.6
20260507032555 16 315 1.6 4.8 0.00 0.00 0.00 81 1016.5
20260507032054 16 331 3.2 4.8 0.00 0.00 0.00 81 1016.4
20260507031554 16 335 1.6 4.8 0.00 0.00 0.00 80 1016.4
20260507031055 16 332 1.6 3.2 0.00 0.00 0.00 79 1016.4
20260507030554 16 311 1.6 3.2 0.00 0.00 0.00 79 1016.3
20260507030055 17 326 1.6 3.2 0.00 0.00 0.00 78 1016.3
20260507025554 17 324 0.0 3.2 0.00 0.00 0.00 78 1016.3
20260507025055 17 316 1.6 3.2 0.00 0.00 0.00 76 1016.2
20260507024555 17 325 1.6 3.2 0.00 0.00 0.00 75 1016.2
20260507024054 17 331 1.6 3.2 0.00 0.00 0.00 75 1016.1
20260507023554 17 341 1.6 4.8 0.00 0.00 0.00 74 1016.1
20260507023054 17 315 3.2 4.8 0.00 0.00 0.00 75 1016.1
20260507022554 17 333 1.6 3.2 0.00 0.00 0.00 75 1016.0
20260507022054 18 320 1.6 3.2 0.00 0.00 0.00 74 1016.0
20260507021554 18 324 1.6 4.8 0.00 0.00 0.00 72 1016.0
20260507021054 18 316 3.2 4.8 0.00 0.00 0.00 70 1016.0
20260507020554 18 323 1.6 3.2 0.00 0.00 0.00 70 1016.0
20260507020055 18 316 3.2 4.8 0.00 0.00 0.00 67 1015.9
20260507015556 18 339 1.6 3.2 0.00 0.00 0.00 68 1015.9
20260507015054 18 327 3.2 6.4 0.00 0.00 0.00 69 1015.9
20260507014555 18 328 3.2 4.8 0.00 0.00 0.00 67 1015.8
20260507014054 18 328 3.2 6.4 0.00 0.00 0.00 66 1015.9
20260507013554 18 332 3.2 6.4 0.00 0.00 0.00 66 1015.8
20260507013055 19 324 4.8 8.0 0.00 0.00 0.00 65 1015.9
20260507012554 19 329 4.8 8.0 0.00 0.00 0.00 65 1015.8
20260507012054 19 321 3.2 4.8 0.00 0.00 0.00 65 1015.8
20260507011554 19 316 3.2 6.4 0.00 0.00 0.00 65 1015.8
20260507011055 20 322 3.2 4.8 0.00 0.00 0.00 63 1015.8
20260507010554 19 319 1.6 3.2 0.00 0.00 0.00 63 1015.8
20260507010056 19 325 3.2 9.7 0.00 0.00 0.00 63 1015.7
20260507005554 20 330 6.4 9.7 0.00 0.00 0.00 61 1015.7
20260507005054 20 326 3.2 6.4 0.00 0.00 0.00 61 1015.7
20260507004554 20 328 6.4 12.9 0.00 0.00 0.00 61 1015.7
20260507004054 20 333 4.8 8.0 0.00 0.00 0.00 62 1015.7
20260507003554 20 324 4.8 9.7 0.00 0.00 0.00 62 1015.6
20260507003054 20 316 1.6 6.4 0.00 0.00 0.00 62 1015.6
20260507002555 20 330 4.8 9.7 0.00 0.00 0.00 62 1015.6
20260507002054 20 326 6.4 12.9 0.00 0.00 0.00 61 1015.5
20260507001554 20 322 3.2 4.8 0.00 0.00 0.00 62 1015.5
20260507001054 21 325 4.8 8.0 0.00 0.00 0.00 61 1015.5
20260507000554 21 308 3.2 4.8 0.00 0.00 0.00 61 1015.4
20260507000054 21 305 3.2 6.4 0.00 0.00 0.00 60 1015.5
20260506235554 21 308 3.2 6.4 0.00 0.00 0.00 60 1015.5
20260506235055 21 313 3.2 8.0 0.00 0.00 0.00 60 1015.5
20260506234555 20 322 3.2 8.0 0.00 0.00 0.00 61 1015.5
20260506234054 21 307 6.4 9.7 0.00 0.00 0.00 59 1015.5
20260506233554 21 302 1.6 4.8 0.00 0.00 0.00 60 1015.5
20260506233054 21 330 6.4 8.0 0.00 0.00 0.00 61 1015.5
20260506232554 21 326 4.8 9.7 0.00 0.00 0.00 61 1015.5
20260506232055 21 320 6.4 11.3 0.00 0.00 0.00 62 1015.5
20260506231554 21 320 3.2 4.8 0.00 0.00 0.00 61 1015.6
20260506231054 21 307 3.2 8.0 0.00 0.00 0.00 60 1015.6
20260506230554 21 287 3.2 4.8 0.00 0.00 0.00 60 1015.6
20260506230054 21 274 1.6 4.8 0.00 0.00 0.00 60 1015.6
20260506225554 21 309 3.2 6.4 0.00 0.00 0.00 60 1015.6
20260506225055 21 307 3.2 6.4 0.00 0.00 0.00 60 1015.7
20260506224554 21 296 4.8 9.7 0.00 0.00 0.00 61 1015.7
20260506224055 21 319 4.8 8.0 0.00 0.00 0.00 61 1015.7
20260506223555 21 309 3.2 4.8 0.00 0.00 0.00 60 1015.7
20260506223054 21 316 3.2 6.4 0.00 0.00 0.00 60 1015.8
20260506222554 22 302 3.2 4.8 0.00 0.00 0.00 59 1015.8
20260506222054 22 216 1.6 4.8 0.00 0.00 0.00 59 1015.8
20260506221554 22 300 3.2 6.4 0.00 0.00 0.00 58 1015.9
20260506221054 22 311 3.2 4.8 0.00 0.00 0.00 59 1015.9
20260506220555 22 317 3.2 6.4 0.00 0.00 0.00 57 1016.0
20260506220054 22 318 1.6 3.2 0.00 0.00 0.00 58 1016.0
20260506215554 22 302 1.6 3.2 0.00 0.00 0.00 58 1016.0
20260506215054 22 333 3.2 9.7 0.00 0.00 0.00 57 1016.0
20260506214554 22 303 3.2 11.3 0.00 0.00 0.00 57 1016.0
20260506214054 22 302 3.2 6.4 0.00 0.00 0.00 57 1016.1
20260506213554 22 270 3.2 8.0 0.00 0.00 0.00 57 1016.1
20260506213057 22 316 3.2 6.4 0.00 0.00 0.00 57 1016.2
20260506212554 22 305 3.2 6.4 0.00 0.00 0.00 59 1016.2
20260506212054 22 310 3.2 4.8 0.00 0.00 0.00 58 1016.2
20260506211555 22 328 4.8 8.0 0.00 0.00 0.00 58 1016.2
20260506211055 22 317 6.4 9.7 0.00 0.00 0.00 57 1016.2
20260506210555 22 299 1.6 3.2 0.00 0.00 0.00 57 1016.3
20260506210055 22 316 1.6 4.8 0.00 0.00 0.00 57 1016.3
20260506205554 22 301 1.6 4.8 0.00 0.00 0.00 58 1016.3
20260506205054 22 190 1.6 4.8 0.00 0.00 0.00 58 1016.4
20260506204554 22 328 1.6 4.8 0.00 0.00 0.00 58 1016.3
20260506204054 22 299 1.6 4.8 0.00 0.00 0.00 57 1016.4
20260506203554 22 315 3.2 8.0 0.00 0.00 0.00 58 1016.3
20260506203054 22 337 6.4 12.9 0.00 0.00 0.00 58 1016.3
20260506202555 22 313 1.6 4.8 0.00 0.00 0.00 56 1016.4
20260506202055 23 314 1.6 4.8 0.00 0.00 0.00 56 1016.5
20260506201556 23 225 4.8 9.7 0.00 0.00 0.00 55 1016.4
20260506201057 23 300 3.2 6.4 0.00 0.00 0.00 55 1016.4
20260506200555 23 226 1.6 4.8 0.00 0.00 0.00 55 1016.5
20260506200054 23 288 3.2 9.7 0.00 0.00 0.00 53 1016.5
20260506195554 23 128 1.6 3.2 0.00 0.00 0.00 54 1016.5
20260506195054 23 317 1.6 4.8 0.00 0.00 0.00 55 1016.6
20260506194554 23 191 3.2 8.0 0.00 0.00 0.00 54 1016.6
20260506194054 23 327 3.2 6.4 0.00 0.00 0.00 54 1016.7
20260506193554 23 307 3.2 4.8 0.00 0.00 0.00 53 1016.7
20260506193054 23 214 1.6 6.4 0.00 0.00 0.00 54 1016.8
20260506192554 23 304 3.2 6.4 0.00 0.00 0.00 53 1016.8
20260506192054 23 184 1.6 4.8 0.00 0.00 0.00 54 1016.8
20260506191555 23 201 1.6 3.2 0.00 0.00 0.00 53 1016.9
20260506191055 23 308 3.2 9.7 0.00 0.00 0.00 53 1016.9
20260506190125 22 319 3.2 4.8 0.00 0.00 0.00 53 1017.0
20260506185556 22 308 3.2 4.8 0.00 0.00 0.00 54 1017.1
20260506185055 22 350 6.4 11.3 0.00 0.00 0.00 54 1017.0
20260506184555 22 192 4.8 9.7 0.00 0.00 0.00 55 1017.1
20260506184054 22 17 1.6 4.8 0.00 0.00 0.00 57 1017.2
20260506183555 22 332 3.2 4.8 0.00 0.00 0.00 55 1017.3
20260506183054 21 90 1.6 4.8 0.00 0.00 0.00 55 1017.4
20260506182554 21 327 4.8 6.4 0.00 0.00 0.00 54 1017.4
20260506182054 21 347 8.0 12.9 0.00 0.00 0.00 53 1017.4
20260506181555 21 311 1.6 4.8 0.00 0.00 0.00 55 1017.4
20260506181054 21 327 3.2 6.4 0.00 0.00 0.00 55 1017.5
20260506180555 21 345 4.8 9.7 0.00 0.00 0.00 55 1017.6
20260506180054 21 333 3.2 9.7 0.00 0.00 0.00 56 1017.6
20260506175554 21 327 3.2 8.0 0.00 0.00 0.00 56 1017.7
20260506175054 20 7 4.8 8.0 0.00 0.00 0.00 57 1017.7
20260506174554 20 350 4.8 9.7 0.00 0.00 0.00 57 1017.8
20260506174054 20 315 1.6 4.8 0.00 0.00 0.00 58 1017.8
20260506173555 20 318 3.2 6.4 0.00 0.00 0.00 57 1017.8
20260506173055 20 314 3.2 6.4 0.00 0.00 0.00 57 1017.9
20260506172555 20 352 6.4 9.7 0.00 0.00 0.00 59 1017.9
20260506172055 20 326 8.0 14.5 0.00 0.00 0.00 58 1018.0
20260506171555 20 353 1.6 3.2 0.00 0.00 0.00 57 1018.1
20260506171058 20 309 3.2 6.4 0.00 0.00 0.00 57 1018.0
20260506170555 20 353 3.2 6.4 0.00 0.00 0.00 59 1018.0
20260506170054 19 143 1.6 3.2 0.00 0.00 0.00 60 1018.0
20260506165556 19 334 3.2 6.4 0.00 0.00 0.00 62 1018.0
20260506165054 19 327 3.2 8.0 0.00 0.00 0.00 61 1018.0
20260506164557 18 329 1.6 4.8 0.00 0.00 0.00 63 1017.9
20260506164054 18 4 6.4 11.3 0.00 0.00 0.00 62 1017.9
20260506163555 18 353 6.4 8.0 0.00 0.00 0.00 63 1018.0
20260506163054 18 352 3.2 6.4 0.00 0.00 0.00 62 1018.1
20260506162555 18 0 6.4 8.0 0.00 0.00 0.00 64 1018.1
20260506162055 18 345 4.8 6.4 0.00 0.00 0.00 65 1018.1
20260506161554 18 303 0.0 1.6 0.00 0.00 0.00 66 1018.1
20260506161055 18 91 4.8 9.7 0.00 0.00 0.00 64 1018.1
20260506160555 18 92 1.6 4.8 0.00 0.00 0.00 65 1018.1
20260506160055 17 160 1.6 4.8 0.00 0.00 0.00 67 1018.1
20260506155554 17 97 4.8 6.4 0.00 0.00 0.00 66 1018.1
20260506155055 17 117 3.2 8.0 0.00 0.00 0.00 67 1018.1
20260506154555 17 61 3.2 6.4 0.00 0.00 0.00 68 1018.0
20260506154054 17 44 4.8 9.7 0.00 0.00 0.00 69 1018.1
20260506153554 17 359 4.8 8.0 0.00 0.00 0.00 68 1018.1
20260506153054 17 37 4.8 6.4 0.00 0.00 0.00 68 1018.1
20260506152555 16 48 4.8 6.4 0.00 0.00 0.00 69 1018.1
20260506152055 16 36 3.2 6.4 0.00 0.00 0.00 70 1018.2
20260506151126 16 35 3.2 6.4 0.00 0.00 0.00 72 1018.2
20260506150555 16 2 4.8 6.4 0.00 0.00 0.00 72 1018.2